Home   Weather   London   Past weeks
Flag for Canada

Past Weather in London, Ontario, Canada — Yesterday and Last 2 Weeks

Now
46 °F

Passing clouds.


Feels Like: 42 °F
Forecast: 63 / 40 °F
Wind: 9 mph from East

Location: London Weather Station

Current Time: Oct 19, 2019 at 9:24:45 pm

Latest Report: Oct 19, 2019 at 8:00 pm


Visibility: 15 mi

Pressure: 29.91 "Hg

Humidity: 82%

Dew Point: 41 °F

Location of LondonLocation

Past Weather in London — Graph

°F

London Temperature Yesterday

Maximum temperature yesterday: 52 °F (at 2:00 pm)
Minimum temperature yesterday: 36 °F (at 11:00 pm)
Average temperature yesterday: 45 °F

High & Low Weather Summary for the Past Weeks

 TemperatureHumidityPressure
High72 °F (Oct 11, 2:00 pm)100% (Oct 5, 6:00 am)30.43 "Hg (Oct 5, 6:00 am)
Low32 °F (Oct 19, 2:00 am)43% (Oct 7, 4:00 pm)29.52 "Hg (Oct 16, 5:00 pm)
Average50 °F77%30.02 "Hg
* Reported Oct 4 8:00 pm — Oct 19 8:00 pm, London. Weather by CustomWeather, © 2019

Note: Actual official high and low records may vary slightly from our data, if they occured in-between our weather recording intervals... More about our weather records

Advertising

London Weather History for the Previous 24 Hours

Scroll right to see more
 ConditionsComfort  
Time TempWeatherWind HumidityBarometerVisibility
8:00 pm
Sat, Oct 19
46 °FPassing clouds.9 mph82%29.91 "Hg15 mi
7:00 pm48 °FPassing clouds.8 mph82%29.93 "Hg15 mi
6:00 pm54 °FScattered clouds.9 mph67%29.93 "Hg15 mi
5:00 pm57 °FPartly sunny.8 mph59%29.94 "Hg15 mi
4:00 pm57 °FPartly sunny.9 mph59%29.95 "Hg15 mi
3:00 pm57 °FPartly sunny.8 mph63%29.98 "Hg15 mi
2:00 pm57 °FScattered clouds.13 mph59%29.99 "Hg15 mi
1:00 pm55 °FScattered clouds.10 mph67%30.02 "Hg15 mi
12:00 pm54 °FScattered clouds.10 mph72%30.04 "Hg15 mi
11:00 am50 °FPassing clouds.8 mph76%30.06 "Hg15 mi
10:00 am45 °FLight fog.7 mph81%30.07 "Hg15 mi
9:00 am37 °FLight fog.6 mph93%30.07 "Hg10 mi
8:00 am34 °FPassing clouds.7 mph100%30.07 "Hg10 mi
7:00 am34 °FPassing clouds.5 mph93%30.07 "Hg15 mi
6:00 am32 °FClear.6 mph93%30.07 "Hg15 mi
5:00 am34 °FClear.3 mph93%30.07 "Hg15 mi
4:00 am34 °FClear.2 mph93%30.06 "Hg15 mi
3:00 am32 °FClear.3 mph100%30.06 "Hg15 mi
2:00 am32 °FPassing clouds.3 mph93%30.06 "Hg15 mi
1:00 am34 °FPassing clouds.2 mph100%30.07 "Hg15 mi
12:00 am34 °FClear.2 mph100%30.08 "Hg15 mi
11:00 pm
Fri, Oct 18
36 °FClear.2 mph100%30.08 "Hg15 mi
10:00 pm37 °FClear.No wind93%30.07 "Hg15 mi
9:06 pm37 °FPassing clouds.3 mph93%30.07 "Hg15 mi
Weather by CustomWeather, © 2019

See weather overview